Time,TemperatureF,DewpointF,PressureIn,WindDirection,WindDirectionDegrees,WindSpeedMPH,WindSpeedGustMPH,Humidity,HourlyPrecipIn,Conditions,Clouds,dailyrainin,SolarRadiationWatts/m^2,SoftwareType,DateUTC
2013-02-08 00:00:00,26.0,26.0,-100.00,ENE,57,1.0,2.0,101,-99.99,,,0.01,-0.200000,,2013-02-08 08:00:00,
2013-02-08 00:52:00,26.0,26.0,-100.00,ENE,57,1.0,2.0,101,-99.99,,,0.01,-0.200000,,2013-02-08 08:52:00,
2013-02-08 01:00:00,26.0,26.0,-100.00,NE,41,1.0,3.0,100,-99.99,,,0.01,1.100000,,2013-02-08 09:00:00,
2013-02-08 01:52:00,26.0,26.0,-100.00,NE,41,1.0,3.0,100,-99.99,,,0.01,1.100000,,2013-02-08 09:52:00,
2013-02-08 02:00:00,27.0,27.0,-100.00,NNE,33,1.0,3.0,100,-99.99,,,0.00,-0.200000,,2013-02-08 10:00:00,
2013-02-08 03:00:00,26.0,26.0,-100.00,ESE,116,2.0,4.0,100,-99.99,,,0.01,-0.200000,,2013-02-08 11:00:00,
2013-02-08 03:52:00,26.0,26.0,-100.00,ESE,116,2.0,4.0,100,-99.99,,,0.01,-0.200000,,2013-02-08 11:52:00,
2013-02-08 04:00:00,25.0,25.0,-100.00,NNE,33,2.0,3.0,98,-99.99,,,-99.99,-0.200000,,2013-02-08 12:00:00,
2013-02-08 04:52:00,25.0,25.0,-100.00,NNE,33,2.0,3.0,98,-99.99,,,-99.99,-0.200000,,2013-02-08 12:52:00,
2013-02-08 05:00:00,24.0,24.0,-100.00,NE,36,1.0,3.0,99,-99.99,,,0.00,-0.200000,,2013-02-08 13:00:00,
2013-02-08 05:52:00,24.0,24.0,-100.00,NE,36,1.0,3.0,99,-99.99,,,0.00,-0.200000,,2013-02-08 13:52:00,
2013-02-08 06:00:00,25.0,25.0,-100.00,NE,39,1.0,3.0,99,-99.99,,,0.00,-0.200000,,2013-02-08 14:00:00,
2013-02-08 06:52:00,25.0,25.0,-100.00,NE,39,1.0,3.0,99,-99.99,,,0.00,-0.200000,,2013-02-08 14:52:00,
2013-02-08 07:00:00,26.0,26.0,-100.00,NNW,327,2.0,3.0,101,-99.99,,,0.00,-0.200000,,2013-02-08 15:00:00,
2013-02-08 07:52:00,26.0,26.0,-100.00,NNW,327,2.0,3.0,101,-99.99,,,0.00,-0.200000,,2013-02-08 15:52:00,
2013-02-08 08:00:00,25.0,25.0,-100.00,NE,35,2.0,4.0,99,-99.99,,,0.00,0.700000,,2013-02-08 16:00:00,
2013-02-08 08:52:00,25.0,25.0,-100.00,NE,35,2.0,4.0,99,-99.99,,,0.00,0.700000,,2013-02-08 16:52:00,
2013-02-08 09:00:00,26.0,24.0,-100.00,ENE,63,2.0,4.0,95,-99.99,,,0.01,4.600000,,2013-02-08 17:00:00,
2013-02-08 09:52:00,26.0,24.0,-100.00,ENE,63,2.0,4.0,95,-99.99,,,0.01,4.600000,,2013-02-08 17:52:00,
2013-02-08 10:00:00,27.0,26.0,-100.00,NNW,339,2.0,4.0,95,-99.99,,,0.00,57.799999,,2013-02-08 18:00:00,
2013-02-08 10:52:00,27.0,26.0,-100.00,NNW,339,2.0,4.0,95,-99.99,,,0.00,57.799999,,2013-02-08 18:52:00,
2013-02-08 11:00:00,28.0,27.0,-100.00,WNW,301,1.0,3.0,94,-99.99,,,0.00,38.000000,,2013-02-08 19:00:00,
2013-02-08 11:52:00,28.0,27.0,-100.00,WNW,301,1.0,3.0,94,-99.99,,,0.00,38.000000,,2013-02-08 19:52:00,
2013-02-08 12:00:00,28.0,27.0,-100.00,NNW,332,2.0,3.0,96,-99.99,,,0.00,38.900002,,2013-02-08 20:00:00,
2013-02-08 12:52:00,28.0,27.0,-100.00,NNW,332,2.0,3.0,96,-99.99,,,0.00,38.900002,,2013-02-08 20:52:00,
2013-02-08 13:00:00,29.0,28.0,-100.00,North,3,2.0,3.0,96,-99.99,,,0.00,42.000000,,2013-02-08 21:00:00,
2013-02-08 13:52:00,29.0,28.0,-100.00,North,3,2.0,3.0,96,-99.99,,,0.00,42.000000,,2013-02-08 21:52:00,
2013-02-08 14:00:00,31.0,29.0,-100.00,SSE,156,2.0,3.0,94,-99.99,,,0.00,60.900002,,2013-02-08 22:00:00,
2013-02-08 14:52:00,31.0,29.0,-100.00,SSE,156,2.0,3.0,94,-99.99,,,0.00,60.900002,,2013-02-08 22:52:00,
2013-02-08 15:00:00,29.0,27.0,-100.00,NNE,25,2.0,3.0,93,-99.99,,,0.00,41.500000,,2013-02-08 23:00:00,
2013-02-08 15:52:00,29.0,27.0,-100.00,NNE,25,2.0,3.0,93,-99.99,,,0.00,41.500000,,2013-02-08 23:52:00,
2013-02-08 16:00:00,28.0,27.0,-100.00,North,350,2.0,4.0,96,-99.99,,,0.00,20.400000,,2013-02-09 00:00:00,
2013-02-08 16:52:00,28.0,27.0,-100.00,North,350,2.0,4.0,96,-99.99,,,0.00,20.400000,,2013-02-09 00:52:00,
2013-02-08 17:00:00,27.0,27.0,-100.00,NE,54,2.0,3.0,98,-99.99,,,0.00,4.200000,,2013-02-09 01:00:00,
2013-02-08 17:52:00,27.0,27.0,-100.00,NE,54,2.0,3.0,98,-99.99,,,0.00,4.200000,,2013-02-09 01:52:00,
2013-02-08 18:00:00,27.0,27.0,-100.00,NNE,24,2.0,5.0,100,-99.99,,,0.00,-0.200000,,2013-02-09 02:00:00,
2013-02-08 18:52:00,27.0,27.0,-100.00,NNE,24,2.0,5.0,100,-99.99,,,0.00,-0.200000,,2013-02-09 02:52:00,
2013-02-08 19:00:00,27.0,26.0,-100.00,West,273,2.0,4.0,99,-99.99,,,0.00,-0.200000,,2013-02-09 03:00:00,
2013-02-08 19:52:00,27.0,26.0,-100.00,West,273,2.0,4.0,99,-99.99,,,0.00,-0.200000,,2013-02-09 03:52:00,
2013-02-08 20:00:00,27.0,26.0,-100.00,ENE,66,2.0,4.0,99,-99.99,,,0.00,-0.200000,,2013-02-09 04:00:00,
2013-02-08 20:52:00,27.0,26.0,-100.00,ENE,66,2.0,4.0,99,-99.99,,,0.00,-0.200000,,2013-02-09 04:52:00,
2013-02-08 21:00:00,26.0,26.0,-100.00,North,10,2.0,3.0,99,-99.99,,,0.00,-0.200000,,2013-02-09 05:00:00,
2013-02-08 21:52:00,26.0,26.0,-100.00,North,10,2.0,3.0,99,-99.99,,,0.00,-0.200000,,2013-02-09 05:52:00,
2013-02-08 22:00:00,26.0,26.0,-100.00,NE,50,2.0,4.0,99,-99.99,,,-99.99,-0.200000,,2013-02-09 06:00:00,
2013-02-08 22:52:00,26.0,26.0,-100.00,NE,50,2.0,4.0,99,-99.99,,,-99.99,-0.200000,,2013-02-09 06:52:00,
2013-02-08 23:00:00,26.0,26.0,-100.00,NE,41,2.0,4.0,99,-99.99,,,-99.99,-0.200000,,2013-02-09 07:00:00,
2013-02-08 23:52:00,26.0,26.0,-100.00,NE,41,2.0,4.0,99,-99.99,,,-99.99,-0.200000,,2013-02-09 07:52:00,